SCP
-0 -0 -0 0 -0 -0 -0 -0 -0 -0 -0 -0 -0 -0 -0 -0 -0 -0 -0 -0 -0 -0 -0 -0 -0 -0 -0 -0 -0 -0 -0 -0 -0 -0 -0 -0 -0 -0 -0 -0 -0 -0 -0
0 -0 0 -0 -0 -0 -0 -0 -0 -0 -0 -0 -0 -0 -0 -0 -0 -0 -0 -0 -0 -0 -0 -0 -0 -0 -0 -0 -0 -0 -0 -0 -0 -0 -0 -0 -0 -0 -0 -0 -0 -0 -0
0 0 0 -0 -0 -0 -0 -0 -0 -0 -0 -0 -0 -0 -0 -0 -0 -0 -0 -0 -0 -0 -0 -0 -0 -0 -0 -0 -0 -0 -0 -0 -0 -0 -0 -0 -0 -0 -0 -0 -0 -0 -0
0 0 0 0 -0 -0 -0 -0 -0 -0 -0 -0 -0 -0 -0 -0 -0 -0 -0 -0 -0 -0 -0 -0 -0 -0 -0 -0 -0 -0 -0 -0 -0 -0 -0 -0 -0 -0 -0 -0 -0 -0 -0
0 0 0 0 -0 -0 -0 -0 -0 -0 -0 -0 -0 -0 -0 -0 -0 -0 -0 -0 -0 -0 -0 -0 -0 -0 -0 -0 -0 -0 -0 -0 -0 -0 -0 -0 -0 -0 -0 -0 -0 -0 -0
0 0 0 0 0 -0 -0 -0 -0 -0 -0 -0 -0 -0 -0 -0 -0 -0 -0 -0 -0 -0 -0 -0 -0 -0 -0 -0 -0 -0 -0 -0 -0 -0 -0 -0 0 -0 -0 -0 -0 -0 -0
0 0 0 0 0 0 -0 -0 -0 -0 -0 -0 -0 -0 -0 -0 -0 -0 -0 -0 -0 -0 -0 -0 -0 -0 -0 -0 -0 -0 -0 -0 0 0 0 0 0 -0 -0 -0 -0 -0 -0
0 0 0 0 0 0 0 -0 -0 -0 -0 -0 -0 -0 -0 -0 -0 -0 -0 -0 -0 -0 -0 -0 -0 -0 -0 -0 -0 -0 -0 -0 0 0 0 -0 -0 -0 -0 -0 0 0 0
0 0 0 0 0 0 0 0 -0 -0 -0 -0 -0 -0 -0 -0 -0 -0 -0 -0 -0 -0 -0 -0 -0 -0 -0 -0 -0 -0 -0 -0 0 0 0 -0 -0 -0 -0 -0 -0 0 0
0 0 0 0 0 0 0 0 0 -0 -0 -0 -0 -0 -0 -0 -0 -0 -0 -0 -0 -0 -0 -0 -0 -0 -0 -0 -0 -0 -0 -0 0 0 -0 -0 -0 -0 -0 -0 0 0 0
0 0 0 0 0 0 0 0 0 0 0 -0 0 0 0 0 0 0 0 -0 -0 -0 -0 -0 -0 -0 -0 -0 -0 -0 -0 0 0 0 -0 -0 -0 -0 -0 0 0 0 0
0 0 0 0 0 0 0 0 0 0 0 0 0 0 0 0 0 0 0 0 -0 -0 0 0 0 -0 0 0 0 0 0 0 0 0 -0 -0 0 0 0 0 0 0 0
0 0 0 0 0 0 0 0 0 0 0 0 0 0 0 0 0 0 0 0 0 0 0 0 0 0 0 0 0 0 0 0 0 0 0 0 0 0 0 0 0 0 0
0 0 0 0 0 0 0 0 0 0 0 0 0 0 0 0 0 0 0 0 0 0 0 0 0 0 0 0 0 0 0 0 0 0 0 0 0 0 0 0 0 0 0
0 0 0 0 0 0 0 0 0 0 0 0 0 0 0 0 0 0 0 0 0 0 0 0 0 0 0 0 0 0 0 0 0 0 0 0 0 0 0 0 0 0 0
0 0 0 0 0 0 0 0 0 0 0 0 0 0 0 0 0 0 0 0 0 0 0 0 0 0 0 0 0 0 0 0 0 0 0 0 0 0 0 0 0 0 0
0 0 0 0 0 0 0 0 0 0 0 0 0 0 0 0 0 0 0 0 0 0 0 0 0 0 0 0 0 0 0 0 0 0 0 0 0 0 0 0 0 0 0
0 0 0 0 0 0 0 0 0 0 0 0 0 0 0 0 0 0 0 0 0 0 0 0 0 0 0 0 0 0 0 0 0 0 0 0 0 0 0 0 0 0 0
0 0 0 0 0 0 0 0 0 0 0 0 0 0 0 0 0 0 0 0 0 0 0 0 0 0 0 0 0 0 0 0 0 0 0 0 0 0 0 0 0 0 0
0 0 0 0 0 0 0 0 0 0 0 0 0 0 0 0 0 0 0 0 0 0 0 0 0 0 0 0 0 0 0 0 0 0 0 0 0 0 0 0 0 0 0
0 0 0 0 0 0 0 0 0 0 0 0 0 0 0 0 0 0 0 0 0 0 0 0 0 0 0 0 0 0 0 0 0 0 0 0 0 0 0 0 0 0 0
0 0 0 0 0 0 0 0 0 0 0 0 0 0 0 0 0 0 0 0 0 0 0 0 0 0 0 0 0 0 0 0 0 0 0 0 0 0 0 0 0 0 0
0 0 0 0 0 0 0 0 0 0 0 0 0 0 0 0 0 0 0 0 0 0 0 0 0 0 0 0 0 0 0 0 0 0 0 0 0 0 0 0 0 0 0
0 0 0 0 0 0 0 0 0 0 0 0 0 0 0 0 0 0 0 0 0 0 0 0 0 0 0 0 0 0 0 0 0 0 0 0 0 0 0 0 0 0 0
0 0 0 0 0 0 0 0 0 0 0 0 0 0 0 0 0 0 0 0 0 0 0 0 0 0 0 0 0 0 0 0 0 0 0 0 0 0 0 0 0 0 0
0 0 0 0 0 0 0 0 0 0 0 0 0 0 0 0 0 0 0 0 0 0 0 0 0 0 0 0 0 0 0 0 0 0 0 0 0 0 0 0 0 0 0
Wind_Speed_500mb
56 52 46 42 39 41 37 35 32 37 38 38 38 40 40 40 40 36 34 32 41 45 46 48 49 50 45 46 50 51 52 55 56 51 54 50 52 52 55 53 52 49 47
61 56 50 46 43 43 40 38 38 42 36 36 38 40 42 37 33 29 29 37 40 45 44 44 45 44 43 47 51 51 48 49 46 53 55 54 52 50 50 50 48 46 48
60 56 53 49 45 44 43 41 43 42 38 39 40 41 36 29 24 24 25 39 43 42 39 38 41 44 40 44 46 46 46 42 44 49 53 53 48 47 47 49 45 44 43
60 58 54 51 49 48 45 42 43 42 41 40 40 37 33 23 23 28 36 39 44 45 43 44 42 40 43 44 44 41 42 43 49 49 50 48 47 44 42 43 45 43 43
57 57 56 53 50 51 45 43 43 43 41 41 39 36 26 24 26 32 36 34 35 40 39 39 38 40 40 40 39 39 40 41 43 46 48 43 43 41 40 41 41 40 39
57 55 56 53 51 51 45 43 44 45 43 43 40 31 25 25 26 29 34 36 33 38 40 36 34 33 34 34 36 40 39 40 41 41 44 45 41 39 38 39 37 37 36
58 55 55 53 51 49 45 44 45 43 43 42 37 28 26 26 27 29 31 34 35 40 37 27 28 31 30 31 36 39 40 39 38 41 43 41 37 36 35 35 35 34 34
58 59 55 52 50 47 44 45 44 42 44 43 35 25 23 24 25 26 31 33 37 38 39 32 30 30 28 30 34 36 36 37 37 37 41 36 33 32 32 33 31 31 31
55 59 57 53 49 46 45 45 44 44 43 41 34 22 24 25 27 26 31 36 37 37 34 31 29 24 25 27 31 33 33 33 33 34 37 35 31 30 31 28 28 28 28
54 57 58 54 50 49 49 47 45 43 42 38 28 26 25 24 25 26 33 36 37 38 30 31 24 21 26 23 28 29 31 34 33 32 33 32 28 28 27 26 27 27 29
55 57 59 57 53 51 50 47 43 42 39 34 31 29 28 28 27 29 34 35 35 35 30 27 26 30 25 24 26 28 28 29 29 30 28 27 27 25 25 26 26 27 27
63 61 60 58 55 55 52 49 47 43 39 34 32 30 28 27 26 30 38 39 37 36 32 29 28 26 21 25 27 24 23 19 20 27 26 24 22 21 23 24 24 23 24
66 65 62 60 57 55 54 51 47 43 40 35 29 31 33 32 30 30 43 41 40 36 35 29 25 23 23 22 21 20 19 17 16 20 22 20 18 18 19 19 20 20 19
70 66 63 61 58 55 54 51 48 45 38 37 34 34 34 32 31 30 40 44 36 36 34 28 23 20 19 20 18 15 15 15 12 10 16 16 14 13 14 14 14 14 14
70 67 63 60 58 55 52 50 47 43 39 38 36 33 31 30 30 31 38 44 37 36 30 27 20 21 18 16 13 11 10 14 12 7 8 9 10 8 7 7 8 7 8
68 68 65 61 58 56 52 50 48 42 41 39 37 33 31 29 28 30 38 43 40 35 28 22 19 17 14 12 10 11 9 12 12 9 8 7 6 5 3 1 1 2 4
69 68 67 63 58 56 53 50 46 44 41 38 36 34 34 31 29 30 36 41 42 37 30 24 20 16 14 14 11 9 7 8 12 14 13 12 11 9 8 7 8 8 8
72 72 67 63 61 57 55 51 47 45 40 36 34 34 35 32 31 34 35 39 40 37 31 28 24 20 18 15 13 12 11 11 12 14 16 17 16 16 15 15 15 16 16
71 71 68 65 63 60 55 50 49 45 40 35 33 35 36 35 34 33 35 37 37 35 32 29 26 22 19 18 17 16 16 16 16 17 18 20 20 21 21 22 23 23 23
70 68 66 66 64 59 56 55 53 43 38 35 34 36 36 36 35 32 34 36 35 32 30 27 23 20 18 18 20 21 22 23 25 24 24 25 25 26 27 27 27 27 28
68 69 68 67 65 65 66 66 60 53 44 38 39 35 36 35 35 34 34 32 30 29 25 23 24 24 23 22 24 27 28 28 29 28 28 28 30 29 32 33 33 32 32
67 68 70 67 68 68 69 67 59 54 48 39 40 38 37 36 36 34 36 33 30 30 31 29 28 26 27 27 27 25 20 21 24 26 32 32 31 32 34 33 36 36 37
72 72 72 69 70 68 69 67 63 55 45 43 47 45 41 38 37 33 33 32 32 32 33 32 30 29 29 29 30 24 10 7 18 9 15 17 21 26 27 27 28 28 29
78 74 75 72 72 71 71 72 68 63 57 55 52 46 42 39 39 36 34 34 35 35 37 36 34 33 32 32 30 33 34 35 19 18 13 17 28 27 24 29 33 37 39
70 77 78 76 76 76 75 76 70 63 61 54 46 47 46 45 43 41 39 37 37 36 34 37 37 37 35 34 33 33 32 35 36 39 45 34 31 30 32 33 34 37 39
63 68 73 76 77 78 80 81 74 66 66 61 50 52 50 49 47 46 42 41 39 37 35 36 36 36 35 33 33 35 34 34 34 32 37 38 40 35 31 32 31 29 32
Wind_Direction_500mb
167 161 160 162 160 154 149 146 136 135 128 128 130 131 129 124 117 117 114 107 111 108 108 108 110 112 111 112 111 106 105 107 106 104 99 100 93 92 91 92 89 87 89
161 162 162 162 162 158 154 148 142 142 140 137 135 130 128 126 128 123 123 120 121 119 119 114 113 115 116 110 109 104 103 104 105 99 100 97 94 91 89 89 89 88 85
162 162 162 164 164 161 157 153 148 150 146 141 137 134 131 129 123 121 127 119 116 129 128 123 122 116 117 118 111 109 105 108 104 100 97 94 92 92 92 92 90 88 87
162 162 164 166 164 164 160 158 155 155 150 146 142 139 136 131 123 120 122 125 122 121 122 122 119 121 118 116 108 109 111 109 103 103 97 95 93 91 91 91 92 92 91
166 162 166 166 166 167 163 161 158 155 151 149 146 142 141 138 128 127 129 124 125 121 122 119 116 117 112 112 113 108 109 111 107 101 97 96 95 94 93 90 86 87 87
166 165 168 168 169 166 167 162 161 158 156 152 150 147 145 134 133 133 138 137 132 124 115 114 114 116 118 114 113 115 114 113 107 103 100 95 91 92 89 89 88 87 87
166 167 170 170 170 169 167 165 165 162 160 157 155 150 137 135 140 138 141 139 140 130 124 134 122 121 124 116 116 117 117 116 112 107 100 97 94 94 90 90 88 88 86
166 167 174 171 170 170 167 167 168 165 162 160 156 146 139 141 143 140 137 140 142 133 140 141 131 125 119 121 120 119 119 116 112 109 102 100 99 97 97 95 91 89 87
169 168 173 174 172 171 169 169 168 164 165 162 158 152 149 146 145 145 140 146 146 136 136 132 132 126 119 118 123 125 121 119 115 111 106 103 99 97 93 91 89 86 81
171 172 173 174 172 170 168 170 168 167 168 169 170 163 157 151 148 148 145 150 147 138 138 142 136 121 115 117 132 133 131 127 122 116 108 104 104 99 95 91 80 80 78
173 175 175 173 174 172 170 169 172 172 175 174 172 170 165 154 153 152 149 151 151 143 151 146 135 129 123 130 139 140 140 139 137 119 110 110 104 100 97 85 80 80 80
173 175 176 175 175 174 174 173 173 174 178 174 170 163 163 161 157 156 149 149 150 149 157 152 142 131 126 135 142 143 150 146 138 123 119 115 112 99 89 83 78 77 78
173 175 176 176 179 178 176 178 179 178 174 176 178 172 169 165 165 164 159 160 158 159 165 160 144 130 125 129 139 145 154 151 149 130 128 124 113 101 91 86 80 79 75
175 177 178 179 181 182 183 182 181 177 180 181 175 169 169 166 166 169 171 171 166 167 168 161 148 141 133 133 127 138 155 164 167 150 138 135 122 109 98 91 83 78 72
180 180 182 184 185 186 188 185 184 184 181 178 175 173 172 172 169 172 176 177 175 172 173 167 166 162 151 150 148 147 160 176 181 182 167 159 142 124 105 95 80 70 62
183 183 185 187 188 188 190 190 184 185 180 181 178 178 174 176 175 175 177 181 183 181 179 177 171 167 168 166 168 149 150 175 188 191 194 209 193 178 184 197 32 341 351
186 187 187 188 190 191 189 188 186 183 187 186 180 181 179 180 182 180 179 183 185 190 191 193 192 194 199 196 191 194 191 187 197 209 216 215 219 218 237 264 277 282 293
189 190 189 189 190 190 190 188 186 187 187 186 186 186 182 182 183 178 177 181 188 194 204 214 220 225 216 214 217 225 225 222 221 223 229 236 242 247 253 263 272 282 286
193 192 190 189 191 189 189 189 189 188 187 191 195 187 185 180 180 183 183 185 190 202 211 220 226 225 231 229 233 240 243 251 249 246 245 249 253 255 258 261 266 272 279
193 192 193 192 193 192 194 189 189 194 192 198 199 193 189 186 186 187 188 194 195 200 202 202 213 227 231 238 248 251 257 261 260 261 259 258 260 262 266 264 268 273 278
196 193 195 198 196 195 192 190 193 196 198 201 199 199 198 196 196 195 200 199 204 205 213 213 217 228 237 246 257 266 270 271 272 271 269 267 268 270 271 272 274 276 278
199 199 197 202 198 196 197 196 199 203 203 207 204 205 208 206 208 202 208 210 214 215 217 223 230 235 243 244 250 268 287 289 287 279 271 271 274 274 276 279 278 280 283
201 200 197 203 201 204 204 204 202 204 211 210 210 210 208 210 216 217 218 219 225 229 233 237 240 244 247 248 251 245 281 288 326 317 320 303 293 286 287 292 290 289 291
204 203 199 204 207 212 211 207 207 207 210 214 215 212 211 214 216 220 224 224 229 232 239 240 243 245 245 246 252 255 259 270 293 300 297 307 306 302 295 294 294 291 293
208 206 206 207 211 212 208 208 208 215 223 225 222 220 218 218 219 220 223 226 229 233 236 237 239 241 246 248 254 263 267 272 275 277 294 303 304 301 301 299 295 297 299
210 212 213 213 215 215 210 212 208 217 226 227 227 228 223 223 224 223 223 228 233 236 237 237 239 241 245 249 253 260 265 268 278 284 289 303 309 316 314 312 314 318 322
Wind_Speed_850mb
56 52 46 42 39 41 37 35 32 37 38 38 38 40 40 40 40 36 34 32 41 45 46 48 49 50 45 46 50 51 52 55 56 51 54 50 52 52 55 53 52 49 47
61 56 50 46 43 43 40 38 38 42 36 36 38 40 42 37 33 29 29 37 40 45 44 44 45 44 43 47 51 51 48 49 46 53 55 54 52 50 50 50 48 46 48
60 56 53 49 45 44 43 41 43 42 38 39 40 41 36 29 24 24 25 39 43 42 39 38 41 44 40 44 46 46 46 42 44 49 53 53 48 47 47 49 45 44 43
60 58 54 51 49 48 45 42 43 42 41 40 40 37 33 23 23 28 36 39 44 45 43 44 42 40 43 44 44 41 42 43 49 49 50 48 47 44 42 43 45 43 43
57 57 56 53 50 51 45 43 43 43 41 41 39 36 26 24 26 32 36 34 35 40 39 39 38 40 40 40 39 39 40 41 43 46 48 43 43 41 40 41 41 40 39
57 55 56 53 51 51 45 43 44 45 43 43 40 31 25 25 26 29 34 36 33 38 40 36 34 33 34 34 36 40 39 40 41 41 44 45 41 39 38 39 37 37 36
58 55 55 53 51 49 45 44 45 43 43 42 37 28 26 26 27 29 31 34 35 40 37 27 28 31 30 31 36 39 40 39 38 41 43 41 37 36 35 35 35 34 34
58 59 55 52 50 47 44 45 44 42 44 43 35 25 23 24 25 26 31 33 37 38 39 32 30 30 28 30 34 36 36 37 37 37 41 36 33 32 32 33 31 31 31
55 59 57 53 49 46 45 45 44 44 43 41 34 22 24 25 27 26 31 36 37 37 34 31 29 24 25 27 31 33 33 33 33 34 37 35 31 30 31 28 28 28 28
54 57 58 54 50 49 49 47 45 43 42 38 28 26 25 24 25 26 33 36 37 38 30 31 24 21 26 23 28 29 31 34 33 32 33 32 28 28 27 26 27 27 29
55 57 59 57 53 51 50 47 43 42 39 34 31 29 28 28 27 29 34 35 35 35 30 27 26 30 25 24 26 28 28 29 29 30 28 27 27 25 25 26 26 27 27
63 61 60 58 55 55 52 49 47 43 39 34 32 30 28 27 26 30 38 39 37 36 32 29 28 26 21 25 27 24 23 19 20 27 26 24 22 21 23 24 24 23 24
66 65 62 60 57 55 54 51 47 43 40 35 29 31 33 32 30 30 43 41 40 36 35 29 25 23 23 22 21 20 19 17 16 20 22 20 18 18 19 19 20 20 19
70 66 63 61 58 55 54 51 48 45 38 37 34 34 34 32 31 30 40 44 36 36 34 28 23 20 19 20 18 15 15 15 12 10 16 16 14 13 14 14 14 14 14
70 67 63 60 58 55 52 50 47 43 39 38 36 33 31 30 30 31 38 44 37 36 30 27 20 21 18 16 13 11 10 14 12 7 8 9 10 8 7 7 8 7 8
68 68 65 61 58 56 52 50 48 42 41 39 37 33 31 29 28 30 38 43 40 35 28 22 19 17 14 12 10 11 9 12 12 9 8 7 6 5 3 1 1 2 4
69 68 67 63 58 56 53 50 46 44 41 38 36 34 34 31 29 30 36 41 42 37 30 24 20 16 14 14 11 9 7 8 12 14 13 12 11 9 8 7 8 8 8
72 72 67 63 61 57 55 51 47 45 40 36 34 34 35 32 31 34 35 39 40 37 31 28 24 20 18 15 13 12 11 11 12 14 16 17 16 16 15 15 15 16 16
71 71 68 65 63 60 55 50 49 45 40 35 33 35 36 35 34 33 35 37 37 35 32 29 26 22 19 18 17 16 16 16 16 17 18 20 20 21 21 22 23 23 23
70 68 66 66 64 59 56 55 53 43 38 35 34 36 36 36 35 32 34 36 35 32 30 27 23 20 18 18 20 21 22 23 25 24 24 25 25 26 27 27 27 27 28
68 69 68 67 65 65 66 66 60 53 44 38 39 35 36 35 35 34 34 32 30 29 25 23 24 24 23 22 24 27 28 28 29 28 28 28 30 29 32 33 33 32 32
67 68 70 67 68 68 69 67 59 54 48 39 40 38 37 36 36 34 36 33 30 30 31 29 28 26 27 27 27 25 20 21 24 26 32 32 31 32 34 33 36 36 37
72 72 72 69 70 68 69 67 63 55 45 43 47 45 41 38 37 33 33 32 32 32 33 32 30 29 29 29 30 24 10 7 18 9 15 17 21 26 27 27 28 28 29
78 74 75 72 72 71 71 72 68 63 57 55 52 46 42 39 39 36 34 34 35 35 37 36 34 33 32 32 30 33 34 35 19 18 13 17 28 27 24 29 33 37 39
70 77 78 76 76 76 75 76 70 63 61 54 46 47 46 45 43 41 39 37 37 36 34 37 37 37 35 34 33 33 32 35 36 39 45 34 31 30 32 33 34 37 39
63 68 73 76 77 78 80 81 74 66 66 61 50 52 50 49 47 46 42 41 39 37 35 36 36 36 35 33 33 35 34 34 34 32 37 38 40 35 31 32 31 29 32
Wind_Direction_850mb
167 161 160 162 160 154 149 146 136 135 128 128 130 131 129 124 117 117 114 107 111 108 108 108 110 112 111 112 111 106 105 107 106 104 99 100 93 92 91 92 89 87 89
161 162 162 162 162 158 154 148 142 142 140 137 135 130 128 126 128 123 123 120 121 119 119 114 113 115 116 110 109 104 103 104 105 99 100 97 94 91 89 89 89 88 85
162 162 162 164 164 161 157 153 148 150 146 141 137 134 131 129 123 121 127 119 116 129 128 123 122 116 117 118 111 109 105 108 104 100 97 94 92 92 92 92 90 88 87
162 162 164 166 164 164 160 158 155 155 150 146 142 139 136 131 123 120 122 125 122 121 122 122 119 121 118 116 108 109 111 109 103 103 97 95 93 91 91 91 92 92 91
166 162 166 166 166 167 163 161 158 155 151 149 146 142 141 138 128 127 129 124 125 121 122 119 116 117 112 112 113 108 109 111 107 101 97 96 95 94 93 90 86 87 87
166 165 168 168 169 166 167 162 161 158 156 152 150 147 145 134 133 133 138 137 132 124 115 114 114 116 118 114 113 115 114 113 107 103 100 95 91 92 89 89 88 87 87
166 167 170 170 170 169 167 165 165 162 160 157 155 150 137 135 140 138 141 139 140 130 124 134 122 121 124 116 116 117 117 116 112 107 100 97 94 94 90 90 88 88 86
166 167 174 171 170 170 167 167 168 165 162 160 156 146 139 141 143 140 137 140 142 133 140 141 131 125 119 121 120 119 119 116 112 109 102 100 99 97 97 95 91 89 87
169 168 173 174 172 171 169 169 168 164 165 162 158 152 149 146 145 145 140 146 146 136 136 132 132 126 119 118 123 125 121 119 115 111 106 103 99 97 93 91 89 86 81
171 172 173 174 172 170 168 170 168 167 168 169 170 163 157 151 148 148 145 150 147 138 138 142 136 121 115 117 132 133 131 127 122 116 108 104 104 99 95 91 80 80 78
173 175 175 173 174 172 170 169 172 172 175 174 172 170 165 154 153 152 149 151 151 143 151 146 135 129 123 130 139 140 140 139 137 119 110 110 104 100 97 85 80 80 80
173 175 176 175 175 174 174 173 173 174 178 174 170 163 163 161 157 156 149 149 150 149 157 152 142 131 126 135 142 143 150 146 138 123 119 115 112 99 89 83 78 77 78
173 175 176 176 179 178 176 178 179 178 174 176 178 172 169 165 165 164 159 160 158 159 165 160 144 130 125 129 139 145 154 151 149 130 128 124 113 101 91 86 80 79 75
175 177 178 179 181 182 183 182 181 177 180 181 175 169 169 166 166 169 171 171 166 167 168 161 148 141 133 133 127 138 155 164 167 150 138 135 122 109 98 91 83 78 72
180 180 182 184 185 186 188 185 184 184 181 178 175 173 172 172 169 172 176 177 175 172 173 167 166 162 151 150 148 147 160 176 181 182 167 159 142 124 105 95 80 70 62
183 183 185 187 188 188 190 190 184 185 180 181 178 178 174 176 175 175 177 181 183 181 179 177 171 167 168 166 168 149 150 175 188 191 194 209 193 178 184 197 32 341 351
186 187 187 188 190 191 189 188 186 183 187 186 180 181 179 180 182 180 179 183 185 190 191 193 192 194 199 196 191 194 191 187 197 209 216 215 219 218 237 264 277 282 293
189 190 189 189 190 190 190 188 186 187 187 186 186 186 182 182 183 178 177 181 188 194 204 214 220 225 216 214 217 225 225 222 221 223 229 236 242 247 253 263 272 282 286
193 192 190 189 191 189 189 189 189 188 187 191 195 187 185 180 180 183 183 185 190 202 211 220 226 225 231 229 233 240 243 251 249 246 245 249 253 255 258 261 266 272 279
193 192 193 192 193 192 194 189 189 194 192 198 199 193 189 186 186 187 188 194 195 200 202 202 213 227 231 238 248 251 257 261 260 261 259 258 260 262 266 264 268 273 278
196 193 195 198 196 195 192 190 193 196 198 201 199 199 198 196 196 195 200 199 204 205 213 213 217 228 237 246 257 266 270 271 272 271 269 267 268 270 271 272 274 276 278
199 199 197 202 198 196 197 196 199 203 203 207 204 205 208 206 208 202 208 210 214 215 217 223 230 235 243 244 250 268 287 289 287 279 271 271 274 274 276 279 278 280 283
201 200 197 203 201 204 204 204 202 204 211 210 210 210 208 210 216 217 218 219 225 229 233 237 240 244 247 248 251 245 281 288 326 317 320 303 293 286 287 292 290 289 291
204 203 199 204 207 212 211 207 207 207 210 214 215 212 211 214 216 220 224 224 229 232 239 240 243 245 245 246 252 255 259 270 293 300 297 307 306 302 295 294 294 291 293
208 206 206 207 211 212 208 208 208 215 223 225 222 220 218 218 219 220 223 226 229 233 236 237 239 241 246 248 254 263 267 272 275 277 294 303 304 301 301 299 295 297 299
210 212 213 213 215 215 210 212 208 217 226 227 227 228 223 223 224 223 223 228 233 236 237 237 239 241 245 249 253 260 265 268 278 284 289 303 309 316 314 312 314 318 322